Previsão horária em Alisivka

Hoje, 25 Junho, Sexta-feira

Tempo Temperatura Precipitação Vento Pressão Humidade
00:00 +25°C° 0 mm 3 m/s 747 mmHg 75%
01:00 +24°C° 0 mm 3 m/s 747 mmHg 76%
02:00 +24°C° 0 mm 3 m/s 747 mmHg 76%
03:00 +24°C° 0 mm 3 m/s 747 mmHg 77%
04:00 +24°C° 0 mm 3 m/s 747 mmHg 78%
05:00 +24°C° 0 mm 3 m/s 747 mmHg 78%
06:00 +26°C° 0 mm 3 m/s 747 mmHg 71%
07:00 +28°C° 0 mm 4 m/s 747 mmHg 64%
08:00 +29°C° 0 mm 4 m/s 747 mmHg 56%
09:00 +32°C° 0 mm 4 m/s 747 mmHg 50%
10:00 +33°C° 0 mm 5 m/s 747 mmHg 44%
11:00 +34°C° 0 mm 5 m/s 747 mmHg 38%
12:00 +35°C° 0 mm 5 m/s 747 mmHg 37%
13:00 +35°C° 0 mm 4 m/s 746 mmHg 37%
14:00 +35°C° 0 mm 4 m/s 746 mmHg 36%
15:00 +35°C° 0 mm 4 m/s 746 mmHg 41%
16:00 +34°C° 0 mm 3 m/s 746 mmHg 46%
17:00 +34°C° 0 mm 3 m/s 746 mmHg 51%
18:00 +31°C° 0 mm 3 m/s 746 mmHg 56%
19:00 +29°C° 0 mm 2 m/s 745 mmHg 61%
20:00 +27°C° 0 mm 2 m/s 745 mmHg 66%
21:00 +26°C° 0 mm 2 m/s 745 mmHg 66%
22:00 +26°C° 0 mm 1 m/s 745 mmHg 66%
23:00 +25°C° 0 mm 1 m/s 745 mmHg 66%

Amanhã, 26 Junho, Sábado

Tempo Temperatura Precipitação Vento Pressão Humidade
00:00 +25°C° 0 mm 1 m/s 745 mmHg 68%
01:00 +25°C° 0 mm 1 m/s 745 mmHg 70%
02:00 +24°C° 0 mm 2 m/s 745 mmHg 73%
03:00 +24°C° 0 mm 2 m/s 745 mmHg 74%
04:00 +24°C° 0 mm 2 m/s 745 mmHg 76%
05:00 +24°C° 0 mm 3 m/s 744 mmHg 78%
06:00 +25°C° 0 mm 3 m/s 744 mmHg 71%
07:00 +27°C° 0 mm 4 m/s 744 mmHg 65%
08:00 +29°C° 0 mm 4 m/s 744 mmHg 59%
09:00 +30°C° 0 mm 4 m/s 744 mmHg 54%
10:00 +32°C° 0 mm 4 m/s 744 mmHg 49%
11:00 +33°C° 0 mm 5 m/s 744 mmHg 44%
12:00 +34°C° 0 mm 5 m/s 744 mmHg 42%
13:00 +34°C° 0 mm 5 m/s 744 mmHg 40%
14:00 +35°C° 0 mm 4 m/s 744 mmHg 38%
15:00 +34°C° 0 mm 4 m/s 744 mmHg 43%
16:00 +33°C° 0 mm 4 m/s 743 mmHg 48%
17:00 +33°C° 0 mm 3 m/s 743 mmHg 53%
18:00 +30°C° 0 mm 3 m/s 743 mmHg 57%
19:00 +28°C° 0 mm 3 m/s 743 mmHg 62%
20:00 +26°C° 0 mm 2 m/s 743 mmHg 66%
21:00 +25°C° 0 mm 2 m/s 743 mmHg 67%
22:00 +25°C° 0 mm 2 m/s 743 mmHg 67%
23:00 +24°C° 0 mm 1 m/s 743 mmHg 68%

Depois de amanhã, 27 Junho, Domingo

Tempo Temperatura Precipitação Vento Pressão Humidade
00:00 +24°C° 0 mm 1 m/s 743 mmHg 68%
01:00 +24°C° 0 mm 1 m/s 743 mmHg 68%
02:00 +24°C° 0 mm 1 m/s 743 mmHg 69%
03:00 +24°C° 0 mm 1 m/s 743 mmHg 71%
04:00 +24°C° 0 mm 1 m/s 743 mmHg 74%
05:00 +24°C° 0 mm 1 m/s 743 mmHg 76%
06:00 +26°C° 0 mm 2 m/s 743 mmHg 72%
07:00 +27°C° 0 mm 2 m/s 743 mmHg 68%
08:00 +28°C° 0 mm 3 m/s 743 mmHg 63%
09:00 +30°C° 0 mm 2 m/s 743 mmHg 59%
10:00 +31°C° 0 mm 2 m/s 743 mmHg 55%
11:00 +32°C° 0 mm 1 m/s 743 mmHg 51%
12:00 +33°C° 0 mm 1 m/s 743 mmHg 49%
13:00 +33°C° 0 mm 1 m/s 743 mmHg 47%
14:00 +34°C° 0 mm 1 m/s 743 mmHg 45%
15:00 +33°C° 0 mm 1 m/s 742 mmHg 47%
16:00 +34°C° 0 mm 2 m/s 742 mmHg 50%
17:00 +34°C° 0 mm 2 m/s 742 mmHg 52%
18:00 +29°C° 0.6 mm 2 m/s 742 mmHg 60%
19:00 +26°C° 0.6 mm 3 m/s 742 mmHg 68%
20:00 +22°C° 0.6 mm 4 m/s 742 mmHg 76%
21:00 +22°C° 0.6 mm 3 m/s 742 mmHg 81%
22:00 +21°C° 0.6 mm 3 m/s 742 mmHg 87%
23:00 +21°C° 0.6 mm 3 m/s 743 mmHg 92%

28 Junho, Segunda-feira

Tempo Temperatura Precipitação Vento Pressão Humidade
00:00 +21°C° 0 mm 2 m/s 742 mmHg 92%
01:00 +21°C° 0 mm 2 m/s 742 mmHg 93%
02:00 +22°C° 0 mm 1 m/s 742 mmHg 93%
03:00 +21°C° 0 mm 1 m/s 742 mmHg 92%
04:00 +20°C° 0 mm 2 m/s 743 mmHg 91%
05:00 +20°C° 0 mm 2 m/s 743 mmHg 91%
06:00 +22°C° 0 mm 3 m/s 743 mmHg 85%
07:00 +24°C° 0 mm 3 m/s 743 mmHg 80%
08:00 +25°C° 0 mm 4 m/s 743 mmHg 74%
09:00 +26°C° 0 mm 4 m/s 743 mmHg 73%
10:00 +26°C° 0 mm 5 m/s 743 mmHg 71%
11:00 +27°C° 0 mm 5 m/s 744 mmHg 69%
12:00 +27°C° 0 mm 5 m/s 744 mmHg 69%
13:00 +27°C° 0 mm 5 m/s 744 mmHg 68%
14:00 +27°C° 0 mm 5 m/s 744 mmHg 67%
15:00 +27°C° 0.1 mm 5 m/s 744 mmHg 69%
16:00 +27°C° 0.1 mm 5 m/s 744 mmHg 71%
17:00 +27°C° 0.1 mm 5 m/s 744 mmHg 72%
18:00 +25°C° 0.1 mm 4 m/s 744 mmHg 78%
19:00 +23°C° 0.1 mm 4 m/s 744 mmHg 84%
20:00 +21°C° 0.1 mm 3 m/s 745 mmHg 89%
21:00 +21°C° 0 mm 3 m/s 745 mmHg 91%
22:00 +20°C° 0 mm 3 m/s 745 mmHg 92%
23:00 +19°C° 0 mm 3 m/s 745 mmHg 93%

29 Junho, Terça-feira

Tempo Temperatura Precipitação Vento Pressão Humidade
00:00 +19°C° 0 mm 2 m/s 745 mmHg 93%
01:00 +18°C° 0 mm 2 m/s 745 mmHg 92%
02:00 +17°C° 0 mm 2 m/s 745 mmHg 92%
03:00 +18°C° 0 mm 2 m/s 745 mmHg 90%
04:00 +18°C° 0 mm 2 m/s 745 mmHg 87%
05:00 +19°C° 0 mm 1 m/s 746 mmHg 85%
06:00 +21°C° 0 mm 1 m/s 746 mmHg 78%
07:00 +22°C° 0 mm 1 m/s 746 mmHg 72%
08:00 +24°C° 0 mm 1 m/s 746 mmHg 65%
09:00 +25°C° 0 mm 2 m/s 746 mmHg 62%
10:00 +26°C° 0 mm 2 m/s 746 mmHg 59%
11:00 +27°C° 0 mm 3 m/s 746 mmHg 56%
12:00 +27°C° 0 mm 3 m/s 745 mmHg 57%
13:00 +27°C° 0 mm 3 m/s 745 mmHg 58%
14:00 +27°C° 0 mm 3 m/s 745 mmHg 60%
15:00 +26°C° 0 mm 2 m/s 745 mmHg 61%
16:00 +26°C° 0 mm 2 m/s 745 mmHg 63%
17:00 +25°C° 0 mm 1 m/s 745 mmHg 65%
18:00 +25°C° 0 mm 1 m/s 745 mmHg 67%
19:00 +24°C° 0 mm 2 m/s 745 mmHg 69%
20:00 +23°C° 0 mm 2 m/s 745 mmHg 71%
21:00 +21°C° 0.1 mm 2 m/s 745 mmHg 74%
22:00 +20°C° 0.1 mm 2 m/s 745 mmHg 77%
23:00 +19°C° 0.1 mm 2 m/s 745 mmHg 79%

30 Junho, Quarta-feira

Tempo Temperatura Precipitação Vento Pressão Humidade
00:00 +18°C° 0 mm 2 m/s 745 mmHg 81%
01:00 +18°C° 0 mm 2 m/s 745 mmHg 82%
02:00 +18°C° 0 mm 2 m/s 745 mmHg 83%
03:00 +18°C° 0 mm 2 m/s 745 mmHg 83%
04:00 +18°C° 0 mm 2 m/s 745 mmHg 83%
05:00 +19°C° 0 mm 2 m/s 745 mmHg 82%
06:00 +20°C° 0 mm 2 m/s 745 mmHg 75%
07:00 +22°C° 0 mm 3 m/s 746 mmHg 69%
08:00 +25°C° 0 mm 3 m/s 746 mmHg 62%
09:00 +26°C° 0 mm 4 m/s 746 mmHg 58%
10:00 +26°C° 0 mm 4 m/s 746 mmHg 54%
11:00 +27°C° 0 mm 4 m/s 746 mmHg 50%
12:00 +28°C° 0 mm 5 m/s 745 mmHg 48%
13:00 +28°C° 0 mm 5 m/s 745 mmHg 46%
14:00 +29°C° 0 mm 5 m/s 745 mmHg 44%
15:00 +28°C° 0 mm 4 m/s 745 mmHg 48%
16:00 +28°C° 0 mm 3 m/s 745 mmHg 53%
17:00 +27°C° 0 mm 2 m/s 745 mmHg 57%
18:00 +26°C° 0 mm 2 m/s 745 mmHg 62%
19:00 +24°C° 0 mm 2 m/s 745 mmHg 67%
20:00 +23°C° 0 mm 2 m/s 745 mmHg 72%
21:00 +21°C° 0 mm 3 m/s 745 mmHg 75%
22:00 +20°C° 0 mm 3 m/s 745 mmHg 79%
23:00 +20°C° 0 mm 3 m/s 745 mmHg 82%
Mostrar mais